Terug naar catalogus

SHIJIAN 6 01A

SJ-6 01A

ActiefWetenschapSSO
NORAD 28413·PAYLOAD·🇨🇳 China

Gelanceerd Sep 8, 2004 vanaf Taiyuan Satellite Launch Center

Loading…

Volgende Passages (komende 24 uur)

TLE

VersSource: Space-Track

Epoch: Sep 14, 2026, 01:20 UTC

1 28413U 04035A   26257.05570310  .00005514  00000-0  26610-3 0  9996
2 28413  97.5817 284.4464 0006095 171.5168 188.6171 15.19080138200952

Volg SHIJIAN 6 01A in realtime met AllMySat

Download on the App Store